Wind_Speed
9 9 9 8 8 8 8 8 8 8 8 7 8 8 8 8 7 6 6 7 7 6 6 7 8 8 8 8 8 9 10 10 11 10 10 11 11 12 12 11 11 11 11
9 9 9 9 9 9 9 9 8 9 8 8 8 8 8 8 8 7 6 6 7 7 7 7 7 8 8 8 8 8 9 10 10 10 10 10 10 11 11 11 11 11 10
9 9 9 10 9 9 9 9 8 8 8 8 8 8 8 8 8 8 8 7 7 8 8 8 8 8 8 8 8 8 9 9 10 10 11 11 11 11 11 10 11 10 10
9 9 9 10 10 10 9 9 8 9 9 9 9 9 9 9 9 9 9 9 9 9 9 9 10 10 10 9 9 10 10 10 10 10 11 11 12 12 12 11 11 11 11
10 10 10 10 10 11 11 10 9 9 9 10 10 10 10 10 10 10 11 11 11 11 11 10 11 11 11 11 11 11 11 11 11 11 11 12 12 12 12 12 11 11 12
11 11 11 11 11 11 11 11 10 10 10 11 11 10 10 11 11 12 12 12 12 12 12 12 12 12 12 12 12 12 12 12 12 12 12 12 12 12 12 12 12 12 12
11 12 11 12 12 12 12 12 12 12 11 11 11 12 11 11 12 12 12 12 12 12 12 13 13 13 13 13 13 13 13 13 13 13 13 13 13 13 12 12 12 12 12
12 12 12 12 12 12 12 12 12 12 13 13 12 12 13 13 12 13 13 13 13 13 13 13 14 14 14 14 14 14 14 14 14 15 14 14 14 13 13 12 12 12 12
13 13 13 13 13 13 13 13 13 13 14 14 14 14 14 14 14 14 14 14 14 14 14 14 14 14 13 14 14 14 15 15 15 15 15 15 14 14 13 13 13 13 13
14 15 15 14 14 14 14 15 15 15 15 15 15 15 15 15 15 15 15 15 15 15 15 14 15 14 14 14 15 15 15 15 15 15 14 14 14 14 14 14 13 14 13
16 16 16 16 16 15 15 16 16 16 16 16 16 16 16 16 16 16 16 16 16 16 16 16 16 15 15 16 16 16 16 15 15 15 15 14 13 14 15 15 15 14 14
17 18 17 18 18 17 17 17 17 17 17 17 17 17 17 17 17 17 17 16 17 17 17 17 17 17 17 17 17 17 17 17 16 16 16 15 15 15 16 16 15 15 14
19 19 20 20 20 19 19 19 19 19 19 19 19 19 19 19 19 18 18 18 17 18 18 19 20 20 20 19 18 18 18 18 18 17 17 16 15 15 16 16 16 16 16
21 21 21 21 21 21 21 21 21 21 21 21 21 21 21 21 21 20 20 20 19 19 20 21 21 21 21 20 20 19 19 19 19 19 18 17 17 17 17 17 17 17 18
23 23 23 23 23 23 23 23 23 23 23 23 23 23 23 23 22 22 22 21 21 22 22 22 22 23 22 21 21 21 21 21 21 21 20 20 19 19 18 18 18 18 19
24 25 25 25 25 25 25 25 25 25 26 25 25 25 24 24 24 24 23 24 24 24 24 23 24 23 24 24 23 23 23 23 22 22 21 21 21 20 20 20 20 20 20
25 26 26 26 26 26 27 27 27 27 27 27 27 26 25 26 25 25 26 26 26 26 26 25 25 25 25 25 25 25 25 24 24 24 24 23 23 22 21 21 21 21 21
27 27 27 28 28 28 28 28 29 29 29 29 29 28 28 27 27 27 27 28 28 28 27 27 27 26 26 26 25 25 25 25 25 25 25 26 25 24 23 23 23 23 22
28 28 28 29 30 30 30 30 30 30 30 30 30 30 30 29 29 29 29 29 29 28 28 28 27 27 27 26 26 26 26 26 26 26 26 27 27 26 25 25 25 24 24
28 28 29 30 31 31 31 31 31 31 31 31 31 32 32 32 31 31 31 30 29 29 28 28 27 27 27 27 27 27 27 27 27 27 27 27 28 28 27 27 27 26 25
29 29 30 31 32 32 32 32 32 32 33 32 33 33 33 33 32 32 31 30 29 29 29 29 28 28 27 27 28 28 28 28 28 28 28 28 28 29 28 28 28 28 27
30 31 31 32 32 32 32 33 33 34 34 34 34 34 35 35 34 33 31 31 30 30 30 30 30 29 29 29 29 30 30 29 29 29 28 29 29 29 29 29 29 29 29
32 32 33 33 33 33 33 34 34 35 34 34 34 35 35 35 34 33 33 32 31 31 32 31 31 31 31 31 31 31 31 30 30 29 29 29 30 30 31 31 30 29 29
34 34 34 34 33 34 34 35 35 34 34 34 34 34 35 35 34 34 34 33 33 33 33 33 32 32 33 33 33 32 32 31 31 30 30 29 30 30 30 31 31 29 29
35 35 36 36 35 35 36 36 35 35 34 34 34 34 34 35 35 34 34 34 34 34 33 33 33 34 34 34 34 34 33 33 32 30 30 30 30 30 30 31 31 31 31
36 36 37 37 37 37 36 36 36 35 35 34 34 34 34 35 35 35 34 34 34 35 35 35 34 34 35 35 35 35 34 34 33 32 31 31 31 31 30 31 32 33 32
Wind_Direction
312 311 310 307 306 302 302 300 301 302 303 302 301 298 298 297 294 296 284 282 278 271 272 269 267 264 264 265 269 269 271 268 266 264 263 264 265 264 265 267 266 268 267
309 309 306 305 306 303 301 301 302 301 299 298 298 297 294 298 301 300 298 293 282 279 277 276 272 275 274 273 271 272 272 269 265 264 265 265 264 263 263 266 268 270 268
308 309 307 307 308 305 302 303 304 301 301 298 296 296 296 295 302 299 297 296 290 286 285 279 281 277 278 278 274 273 272 270 270 269 268 268 265 266 265 268 264 263 263
309 307 306 306 307 306 304 301 301 297 297 299 298 298 297 295 298 297 295 292 290 287 284 283 284 282 282 283 281 279 278 275 275 275 275 273 270 268 266 267 267 262 261
305 302 300 301 302 303 301 300 299 296 293 293 293 294 296 296 296 295 295 293 290 287 285 284 283 281 281 280 278 278 277 277 276 276 277 276 273 271 270 269 269 264 262
299 297 296 294 296 298 298 296 295 296 292 290 290 291 291 293 293 293 294 295 293 290 286 282 282 280 279 278 276 277 276 276 276 276 277 277 275 272 270 267 265 263 261
298 298 297 295 295 295 295 293 292 295 294 292 289 290 290 290 289 290 291 291 291 291 288 283 279 278 277 274 274 273 272 272 274 275 274 275 275 272 271 268 265 262 261
296 298 299 299 299 296 295 293 291 292 294 293 290 289 291 291 289 289 290 290 290 290 288 285 281 276 275 273 272 271 270 270 270 272 273 274 273 270 267 267 264 261 259
294 296 298 296 296 297 295 293 292 291 293 293 292 290 289 289 290 291 290 290 290 289 287 285 283 281 278 275 273 272 271 269 268 272 271 269 268 267 265 263 262 260 258
293 294 297 295 292 294 294 292 290 290 290 290 290 290 288 288 289 289 289 290 289 286 283 281 280 279 280 278 275 273 271 270 269 267 265 265 264 265 265 263 262 259 255
292 293 294 293 291 290 290 290 289 288 287 287 288 289 288 288 288 288 287 286 285 285 282 281 278 276 277 277 276 273 271 269 267 265 264 265 265 264 266 266 262 261 255
289 290 292 292 291 289 288 288 287 287 287 287 286 286 287 287 287 287 286 284 283 282 281 281 278 274 274 274 273 272 270 269 267 265 264 266 267 266 267 267 264 261 258
287 287 288 288 288 287 286 285 285 284 284 285 285 285 286 286 287 287 286 285 283 282 281 280 277 275 274 272 272 270 267 266 264 265 267 269 269 267 268 266 261 262 261
286 287 286 285 286 285 284 282 282 284 283 283 283 284 285 286 286 285 285 285 283 281 280 279 277 276 275 273 271 271 270 266 266 265 267 269 270 269 269 266 262 262 263
285 285 285 284 283 284 283 281 282 283 282 282 282 282 283 283 284 284 284 284 284 282 280 279 277 275 274 274 273 271 271 270 269 266 266 266 268 267 267 266 264 263 264
284 285 285 284 283 283 282 280 281 282 282 281 280 280 281 282 283 283 284 283 283 282 281 278 276 276 274 273 272 271 271 270 269 268 265 264 264 265 265 265 265 265 266
283 284 284 284 284 283 283 281 280 280 281 280 280 279 279 280 282 282 283 283 282 281 280 279 277 276 274 273 271 270 269 268 267 266 264 264 265 265 264 263 264 266 266
283 283 283 283 283 284 283 283 282 281 281 280 280 279 278 279 280 280 282 282 281 280 280 278 276 275 272 271 269 268 268 267 266 266 264 264 265 266 262 264 264 264 264
282 283 283 283 284 283 283 283 283 282 281 280 280 279 278 279 280 280 281 281 280 279 277 276 274 273 272 270 269 268 268 268 267 267 266 264 264 265 263 264 263 263 263
282 282 284 284 284 284 283 282 282 282 280 279 279 278 278 278 279 280 280 279 278 277 276 274 273 272 271 269 268 268 268 269 269 269 269 267 265 262 262 262 262 263 263
284 283 284 285 285 284 283 282 282 281 280 278 278 278 278 279 280 280 280 278 276 275 274 274 273 272 271 269 268 267 268 269 271 270 269 269 266 263 262 260 261 261 261
284 284 285 285 285 285 284 283 282 282 280 279 278 277 279 279 278 278 278 276 275 274 273 272 272 272 271 270 269 269 269 268 269 268 267 267 266 264 263 263 261 260 262
284 285 285 285 286 286 285 285 284 283 282 280 279 278 278 277 276 276 275 274 274 274 273 272 271 270 271 270 269 269 269 267 267 268 267 266 266 265 264 264 262 262 261
286 286 285 285 285 285 285 286 286 285 284 282 280 279 278 278 278 276 275 273 273 273 273 272 270 270 270 270 270 268 267 266 266 269 269 266 266 266 265 264 263 263 264
285 286 285 285 285 285 285 286 285 284 283 282 281 281 280 279 278 275 273 273 273 273 273 272 270 270 269 269 268 268 266 265 265 267 268 267 265 264 265 265 263 263 264
285 284 285 285 285 285 286 286 285 284 283 283 282 281 281 280 278 276 274 273 272 272 273 272 271 270 269 269 268 267 266 265 263 264 265 266 265 265 265 265 264 263 263
Height
5850 5849 5848 5847 5846 5846 5845 5845 5844 5843 5842 5842 5841 5840 5839 5838 5837 5837 5835 5835 5834 5834 5834 5834 5834 5833 5833 5834 5834 5834 5834 5834 5834 5834 5834 5835 5835 5835 5835 5835 5835 5835 5835
5848 5847 5846 5845 5845 5844 5843 5843 5842 5841 5841 5840 5839 5838 5837 5836 5836 5835 5834 5833 5833 5832 5832 5832 5832 5832 5832 5832 5832 5832 5832 5832 5832 5832 5832 5832 5832 5832 5832 5832 5833 5833 5833
5846 5845 5845 5844 5843 5842 5841 5841 5840 5839 5839 5838 5837 5836 5835 5834 5834 5833 5832 5832 5831 5831 5830 5830 5830 5830 5830 5830 5829 5829 5829 5829 5829 5829 5830 5830 5830 5830 5830 5830 5830 5830 5831
5844 5844 5843 5842 5841 5840 5839 5839 5838 5838 5837 5836 5835 5835 5834 5833 5832 5831 5830 5830 5829 5829 5828 5828 5828 5828 5828 5827 5827 5827 5827 5827 5827 5827 5827 5827 5827 5827 5827 5827 5827 5827 5828
5842 5841 5841 5840 5839 5838 5837 5836 5836 5835 5835 5834 5833 5832 5832 5831 5830 5829 5828 5828 5827 5826 5826 5826 5825 5825 5825 5825 5824 5824 5824 5824 5824 5824 5824 5824 5824 5824 5824 5824 5824 5824 5825
5840 5839 5838 5837 5836 5836 5835 5834 5833 5833 5832 5831 5831 5830 5829 5829 5828 5827 5826 5825 5824 5824 5823 5823 5822 5822 5822 5822 5821 5821 5821 5821 5821 5821 5821 5820 5820 5820 5820 5821 5821 5821 5821
5838 5837 5836 5835 5834 5833 5832 5831 5831 5830 5829 5829 5828 5827 5826 5826 5825 5824 5823 5822 5821 5821 5820 5819 5819 5819 5818 5818 5818 5818 5818 5818 5818 5818 5818 5817 5817 5817 5817 5817 5817 5817 5818
5835 5834 5833 5832 5831 5830 5830 5829 5828 5827 5826 5826 5825 5824 5823 5823 5821 5820 5819 5819 5818 5817 5816 5816 5815 5815 5815 5814 5814 5814 5814 5814 5814 5814 5814 5814 5813 5813 5813 5813 5813 5814 5814
5832 5831 5830 5829 5828 5827 5827 5826 5825 5824 5823 5822 5821 5821 5820 5819 5818 5817 5816 5815 5814 5813 5812 5811 5811 5810 5810 5810 5810 5810 5810 5810 5810 5810 5809 5809 5809 5809 5809 5810 5810 5810 5811
5829 5828 5827 5826 5825 5824 5823 5822 5821 5820 5820 5819 5818 5817 5816 5815 5814 5813 5812 5810 5809 5808 5807 5807 5806 5806 5806 5806 5806 5806 5806 5806 5806 5805 5805 5805 5805 5805 5806 5806 5806 5806 5807
5825 5824 5823 5822 5821 5820 5819 5818 5817 5816 5815 5815 5814 5813 5812 5811 5810 5809 5808 5807 5805 5803 5803 5802 5801 5801 5801 5801 5801 5801 5801 5801 5801 5801 5801 5801 5801 5801 5801 5802 5802 5802 5803
5821 5820 5819 5818 5817 5816 5815 5814 5813 5812 5811 5810 5809 5808 5807 5806 5805 5804 5803 5802 5800 5799 5798 5797 5796 5796 5796 5796 5796 5796 5796 5796 5797 5797 5796 5797 5797 5797 5797 5798 5798 5798 5799
5816 5815 5814 5813 5812 5811 5810 5809 5808 5807 5806 5805 5804 5803 5802 5801 5800 5799 5798 5796 5795 5794 5793 5792 5791 5791 5790 5790 5790 5790 5791 5791 5791 5791 5792 5792 5792 5792 5793 5793 5793 5794 5794
5810 5809 5808 5807 5806 5805 5804 5803 5802 5801 5800 5799 5798 5797 5796 5795 5794 5793 5792 5791 5790 5789 5787 5786 5785 5784 5784 5784 5784 5784 5785 5785 5785 5786 5787 5787 5787 5788 5788 5788 5788 5789 5790
5804 5803 5802 5801 5800 5799 5798 5797 5796 5795 5794 5793 5792 5791 5790 5789 5788 5786 5785 5784 5784 5783 5781 5780 5779 5778 5778 5778 5778 5778 5778 5778 5779 5780 5781 5781 5782 5782 5782 5783 5783 5784 5785
5797 5796 5795 5794 5793 5792 5791 5790 5789 5788 5787 5786 5785 5784 5783 5782 5781 5780 5779 5777 5776 5775 5774 5773 5772 5771 5771 5771 5771 5771 5771 5771 5772 5773 5774 5774 5775 5776 5776 5777 5778 5778 5779
5790 5789 5788 5786 5785 5784 5783 5782 5781 5781 5780 5778 5777 5777 5776 5775 5774 5772 5771 5770 5768 5767 5766 5765 5764 5764 5763 5763 5763 5764 5764 5765 5765 5766 5767 5767 5768 5769 5770 5771 5772 5772 5773
5782 5781 5780 5779 5778 5776 5775 5774 5773 5772 5771 5770 5769 5768 5768 5767 5766 5765 5763 5762 5761 5759 5758 5758 5757 5756 5756 5755 5756 5756 5756 5757 5757 5758 5759 5760 5761 5761 5763 5764 5764 5765 5766
5774 5773 5772 5771 5769 5768 5766 5765 5764 5763 5762 5761 5760 5760 5759 5758 5758 5756 5755 5754 5752 5751 5750 5749 5749 5748 5748 5748 5748 5748 5748 5749 5749 5750 5751 5752 5753 5754 5755 5756 5757 5758 5759
5766 5765 5763 5762 5760 5759 5757 5756 5755 5753 5753 5752 5751 5750 5749 5749 5748 5747 5746 5745 5744 5743 5742 5741 5741 5740 5740 5740 5740 5740 5741 5741 5741 5742 5742 5743 5744 5746 5747 5748 5749 5750 5751
5758 5756 5755 5753 5751 5749 5748 5746 5745 5744 5742 5742 5741 5740 5739 5739 5738 5737 5736 5735 5734 5734 5733 5733 5732 5732 5732 5732 5732 5732 5732 5733 5733 5733 5734 5735 5735 5737 5738 5739 5741 5742 5743
5749 5747 5746 5744 5742 5740 5738 5736 5735 5733 5732 5731 5731 5730 5729 5728 5727 5726 5726 5725 5725 5724 5724 5724 5723 5723 5723 5723 5723 5723 5724 5724 5725 5725 5725 5726 5726 5728 5729 5731 5732 5733 5735
5739 5738 5736 5734 5732 5730 5728 5726 5724 5723 5721 5720 5720 5719 5718 5717 5716 5716 5715 5715 5714 5714 5714 5714 5714 5714 5714 5714 5714 5714 5714 5715 5716 5716 5716 5717 5718 5719 5720 5721 5722 5724 5726
5730 5728 5726 5724 5722 5720 5718 5716 5714 5712 5711 5710 5709 5708 5707 5706 5706 5705 5705 5704 5704 5704 5704 5703 5703 5703 5703 5703 5703 5704 5704 5705 5706 5706 5707 5708 5709 5709 5710 5712 5713 5714 5716
5719 5717 5715 5713 5711 5709 5707 5705 5703 5702 5700 5699 5698 5697 5696 5695 5695 5694 5694 5693 5693 5693 5692 5692 5692 5692 5692 5692 5692 5693 5694 5695 5696 5697 5697 5698 5699 5700 5701 5702 5703 5705 5706
5708 5706 5704 5702 5700 5698 5696 5694 5692 5691 5690 5689 5687 5686 5685 5684 5683 5682 5682 5682 5682 5681 5681 5681 5681 5681 5681 5681 5681 5682 5683 5684 5685 5687 5688 5689 5690 5690 5692 5693 5694 5695 5697